| time (UTC) | temp F | wind direction | speed knots | gust knots | rain 1hr in | rain 24hr in | rain mn in | humidity % | barometer mb |
| 20260505114351 | 58 | 222 | 6.1 | 7.8 | 0.00 | 0.01 | 0.01 | 83 | 1006.2 |
| 20260505113848 | 58 | 218 | 3.5 | 5.2 | 0.00 | 0.01 | 0.01 | 83 | 1006.1 |
| 20260505113345 | 58 | 175 | 1.7 | 5.2 | 0.00 | 0.01 | 0.01 | 83 | 1005.5 |
| 20260505112840 | 58 | 210 | 2.6 | 6.1 | 0.00 | 0.01 | 0.01 | 83 | 1005.9 |
| 20260505112338 | 58 | 198 | 2.6 | 4.3 | 0.00 | 0.01 | 0.01 | 84 | 1006.1 |
| 20260505111833 | 57 | 220 | 2.6 | 2.6 | 0.00 | 0.01 | 0.01 | 84 | 1005.9 |
| 20260505111329 | 57 | 212 | 3.5 | 4.3 | 0.00 | 0.01 | 0.01 | 84 | 1006.0 |
| 20260505110825 | 57 | 221 | 0.0 | 0.0 | 0.00 | 0.01 | 0.01 | 85 | 1006.2 |
| 20260505110323 | 57 | 227 | 0.0 | 0.0 | 0.00 | 0.01 | 0.01 | 85 | 1006.0 |
| 20260505101757 | 60 | 269 | 2.6 | 4.3 | 0.00 | 0.00 | 0.00 | 78 | 1006.2 |
| 20260505101253 | 61 | 177 | 5.2 | 7.8 | 0.00 | 0.00 | 0.00 | 76 | 1006.2 |
| 20260505100749 | 61 | 223 | 0.9 | 1.7 | 0.00 | 0.00 | 0.00 | 75 | 1006.2 |
| 20260505100246 | 61 | 234 | 0.0 | 0.0 | 0.00 | 0.00 | 0.00 | 75 | 1005.9 |
| 20260505095742 | 61 | 203 | 0.0 | 0.0 | 0.00 | 0.00 | 0.00 | 75 | 1005.9 |
| 20260505095240 | 61 | 203 | 1.7 | 2.6 | 0.00 | 0.00 | 0.00 | 74 | 1006.1 |
| 20260505094735 | 61 | 230 | 0.9 | 1.7 | 0.00 | 0.00 | 0.00 | 74 | 1006.3 |
| 20260505094232 | 61 | 273 | 2.6 | 2.6 | 0.00 | 0.00 | 0.00 | 74 | 1006.2 |
| 20260505093728 | 62 | 226 | 1.7 | 1.7 | 0.00 | 0.00 | 0.00 | 74 | 1005.8 |
| 20260505093226 | 62 | 189 | 2.6 | 6.1 | 0.00 | 0.00 | 0.00 | 74 | 1006.0 |
| 20260505092722 | 62 | 222 | 3.5 | 5.2 | 0.00 | 0.00 | 0.00 | 74 | 1006.1 |
| 20260505092221 | 62 | 255 | 0.0 | 0.0 | 0.00 | 0.00 | 0.00 | 73 | 1005.8 |
| 20260505091718 | 62 | 243 | 3.5 | 7.0 | 0.00 | 0.00 | 0.00 | 73 | 1006.2 |
| 20260505091216 | 62 | 231 | 0.9 | 0.9 | 0.00 | 0.00 | 0.00 | 73 | 1006.0 |
| 20260505090713 | 62 | 211 | 2.6 | 4.3 | 0.00 | 0.00 | 0.00 | 72 | 1005.7 |
| 20260505090211 | 63 | 233 | 2.6 | 4.3 | 0.00 | 0.00 | 0.00 | 72 | 1006.0 |
| 20260505085708 | 63 | 214 | 1.7 | 2.6 | 0.00 | 0.00 | 0.00 | 71 | 1005.7 |
| 20260505085207 | 63 | 215 | 3.5 | 5.2 | 0.00 | 0.00 | 0.00 | 71 | 1005.7 |
| 20260505084704 | 63 | 267 | 0.9 | 2.6 | 0.00 | 0.00 | 0.00 | 71 | 1005.5 |
| 20260505084202 | 63 | 217 | 4.3 | 7.0 | 0.00 | 0.00 | 0.00 | 70 | 1005.5 |
| 20260505083659 | 64 | 229 | 4.3 | 5.2 | 0.00 | 0.00 | 0.00 | 70 | 1005.2 |
| 20260505083156 | 64 | 245 | 3.5 | 5.2 | 0.00 | 0.00 | 0.00 | 69 | 1005.3 |
| 20260505082651 | 64 | 236 | 2.6 | 5.2 | 0.00 | 0.00 | 0.00 | 68 | 1005.3 |
| 20260505082149 | 64 | 255 | 0.0 | 2.6 | 0.00 | 0.00 | 0.00 | 68 | 1005.3 |
| 20260505081644 | 65 | 252 | 3.5 | 6.1 | 0.00 | 0.00 | 0.00 | 67 | 1005.1 |
| 20260505081142 | 65 | 205 | 6.1 | 8.7 | 0.00 | 0.00 | 0.00 | 66 | 1005.0 |
| 20260505080639 | 65 | 224 | 1.7 | 2.6 | 0.00 | 0.00 | 0.00 | 66 | 1005.0 |
| 20260505080135 | 66 | 244 | 6.1 | 8.7 | 0.00 | 0.00 | 0.00 | 65 | 1005.2 |
| 20260505075631 | 66 | 203 | 1.7 | 2.6 | 0.00 | 0.00 | 0.00 | 64 | 1005.2 |
| 20260505075128 | 66 | 219 | 6.1 | 7.8 | 0.00 | 0.00 | 0.00 | 63 | 1004.9 |
| 20260505074625 | 66 | 205 | 6.1 | 8.7 | 0.00 | 0.00 | 0.00 | 64 | 1005.1 |
| 20260505074122 | 66 | 221 | 0.9 | 2.6 | 0.00 | 0.00 | 0.00 | 64 | 1004.9 |
| 20260505073620 | 66 | 218 | 5.2 | 13.0 | 0.00 | 0.00 | 0.00 | 65 | 1004.7 |
| 20260505073118 | 67 | 236 | 1.7 | 2.6 | 0.00 | 0.00 | 0.00 | 62 | 1004.8 |
| 20260505072613 | 67 | 222 | 5.2 | 7.0 | 0.00 | 0.00 | 0.00 | 61 | 1004.5 |
| 20260505072110 | 67 | 243 | 4.3 | 6.1 | 0.00 | 0.00 | 0.00 | 61 | 1004.5 |
| 20260505071605 | 67 | 195 | 3.5 | 6.1 | 0.00 | 0.00 | 0.00 | 61 | 1004.6 |
| 20260505071104 | 67 | 237 | 0.0 | 0.9 | 0.00 | 0.00 | 0.00 | 60 | 1004.4 |
| 20260505070600 | 67 | 171 | 4.3 | 7.8 | 0.00 | 0.00 | 0.00 | 61 | 1004.6 |
| 20260505070056 | 67 | 237 | 0.9 | 0.9 | 0.00 | 0.00 | 0.00 | 61 | 1004.4 |
| 20260505065552 | 67 | 225 | 0.0 | 0.0 | 0.00 | 0.00 | 0.00 | 61 | 1004.2 |
| 20260505065049 | 67 | 258 | 4.3 | 5.2 | 0.00 | 0.00 | 0.00 | 61 | 1004.5 |
| 20260505064546 | 67 | 234 | 5.2 | 7.0 | 0.00 | 0.00 | 0.00 | 61 | 1004.6 |
| 20260505064045 | 67 | 205 | 1.7 | 4.3 | 0.00 | 0.00 | 0.00 | 62 | 1004.4 |
| 20260505063542 | 67 | 223 | 2.6 | 4.3 | 0.00 | 0.00 | 0.00 | 62 | 1004.5 |
| 20260505063037 | 67 | 214 | 0.9 | 0.9 | 0.00 | 0.00 | 0.00 | 61 | 1004.5 |
| 20260505062534 | 67 | 222 | 3.5 | 4.3 | 0.00 | 0.00 | 0.00 | 63 | 1004.7 |
| 20260505062032 | 67 | 221 | 0.0 | 0.0 | 0.00 | 0.00 | 0.00 | 64 | 1004.4 |
| 20260505061529 | 67 | 215 | 4.3 | 5.2 | 0.00 | 0.00 | 0.00 | 64 | 1004.6 |
| 20260505061027 | 67 | 220 | 4.3 | 6.1 | 0.00 | 0.00 | 0.00 | 64 | 1004.8 |
| 20260505060524 | 67 | 223 | 7.8 | 9.6 | 0.00 | 0.00 | 0.00 | 64 | 1004.6 |
| 20260505060020 | 67 | 251 | 1.7 | 6.1 | 0.00 | 0.00 | 0.00 | 64 | 1004.6 |
| 20260505055516 | 67 | 210 | 2.6 | 7.0 | 0.00 | 0.00 | 0.00 | 64 | 1004.7 |
| 20260505055013 | 67 | 222 | 0.0 | 0.0 | 0.00 | 0.00 | 0.00 | 65 | 1004.7 |
| 20260505054510 | 67 | 216 | 4.3 | 7.0 | 0.00 | 0.00 | 0.00 | 64 | 1004.8 |
| 20260505054008 | 66 | 222 | 2.6 | 6.1 | 0.00 | 0.00 | 0.00 | 65 | 1004.7 |
| 20260505053505 | 67 | 187 | 2.6 | 5.2 | 0.00 | 0.00 | 0.00 | 64 | 1005.0 |
| 20260505053001 | 66 | 207 | 0.0 | 0.0 | 0.00 | 0.00 | 0.00 | 65 | 1005.0 |
| 20260505052459 | 66 | 223 | 2.6 | 2.6 | 0.00 | 0.00 | 0.00 | 66 | 1004.9 |
| 20260505051956 | 66 | 185 | 3.5 | 6.1 | 0.00 | 0.00 | 0.00 | 66 | 1005.5 |
| 20260505051453 | 66 | 219 | 2.6 | 2.6 | 0.00 | 0.00 | 0.00 | 66 | 1005.3 |
| 20260505050951 | 66 | 225 | 3.5 | 5.2 | 0.00 | 0.00 | 0.00 | 66 | 1005.1 |
| 20260505050449 | 66 | 216 | 0.0 | 0.0 | 0.00 | 0.00 | 0.00 | 67 | 1005.2 |
| 20260505041416 | 65 | 210 | 1.7 | 1.7 | 0.00 | 0.00 | 0.00 | 70 | 1005.5 |
| 20260505040914 | 65 | 224 | 2.6 | 5.2 | 0.00 | 0.00 | 0.00 | 71 | 1005.5 |
| 20260505040411 | 65 | 220 | 2.6 | 4.3 | 0.00 | 0.00 | 0.00 | 70 | 1005.2 |
| 20260505035908 | 65 | 204 | 2.6 | 5.2 | 0.00 | 0.00 | 0.00 | 71 | 1005.3 |
| 20260505035403 | 65 | 222 | 2.6 | 2.6 | 0.00 | 0.00 | 0.00 | 71 | 1005.3 |
| 20260505034901 | 65 | 229 | 4.3 | 6.1 | 0.00 | 0.00 | 0.00 | 71 | 1005.7 |
| 20260505034358 | 65 | 216 | 0.9 | 1.7 | 0.00 | 0.00 | 0.00 | 71 | 1005.5 |
| 20260505033855 | 65 | 209 | 1.7 | 4.3 | 0.00 | 0.00 | 0.00 | 71 | 1005.7 |
| 20260505033351 | 65 | 179 | 3.5 | 6.1 | 0.00 | 0.00 | 0.00 | 71 | 1005.3 |
| 20260505032850 | 65 | 229 | 2.6 | 5.2 | 0.00 | 0.00 | 0.00 | 71 | 1005.3 |
| 20260505032346 | 65 | 212 | 3.5 | 5.2 | 0.00 | 0.00 | 0.00 | 71 | 1005.5 |
| 20260505031843 | 65 | 198 | 0.0 | 0.0 | 0.00 | 0.00 | 0.00 | 71 | 1005.6 |
| 20260505031339 | 65 | 197 | 0.0 | 0.9 | 0.00 | 0.00 | 0.00 | 71 | 1005.6 |
| 20260505030837 | 65 | 212 | 0.0 | 0.9 | 0.00 | 0.00 | 0.00 | 70 | 1005.5 |
| 20260505030332 | 65 | 207 | 1.7 | 4.3 | 0.00 | 0.00 | 0.00 | 70 | 1005.3 |
| 20260505025828 | 65 | 216 | 1.7 | 2.6 | 0.00 | 0.00 | 0.00 | 70 | 1005.7 |
| 20260505025326 | 65 | 206 | 1.7 | 4.3 | 0.00 | 0.00 | 0.00 | 70 | 1005.6 |
| 20260505024824 | 65 | 179 | 0.9 | 1.7 | 0.00 | 0.00 | 0.00 | 70 | 1005.7 |
| 20260505024322 | 65 | 205 | 0.9 | 0.9 | 0.00 | 0.00 | 0.00 | 71 | 1005.6 |
| 20260505023819 | 65 | 187 | 2.6 | 4.3 | 0.00 | 0.00 | 0.00 | 70 | 1005.6 |
| 20260505023315 | 65 | 199 | 1.7 | 4.3 | 0.00 | 0.00 | 0.00 | 70 | 1005.7 |
| 20260505022813 | 65 | 208 | 2.6 | 4.3 | 0.00 | 0.00 | 0.00 | 70 | 1005.8 |
| 20260505022310 | 65 | 205 | 1.7 | 1.7 | 0.00 | 0.00 | 0.00 | 69 | 1005.5 |
| 20260505021807 | 65 | 213 | 2.6 | 5.2 | 0.00 | 0.00 | 0.00 | 69 | 1005.3 |
| 20260505021304 | 65 | 195 | 3.5 | 5.2 | 0.00 | 0.00 | 0.00 | 69 | 1005.5 |
| 20260505020759 | 65 | 191 | 2.6 | 5.2 | 0.00 | 0.00 | 0.00 | 68 | 1005.5 |
| 20260505020254 | 65 | 195 | 2.6 | 4.3 | 0.00 | 0.00 | 0.00 | 68 | 1005.5 |
| 20260505015752 | 65 | 198 | 1.7 | 1.7 | 0.00 | 0.00 | 0.00 | 68 | 1005.6 |
| 20260505015249 | 65 | 190 | 3.5 | 5.2 | 0.00 | 0.00 | 0.00 | 68 | 1005.5 |
| 20260505014746 | 65 | 206 | 0.9 | 2.6 | 0.00 | 0.00 | 0.00 | 67 | 1005.2 |
| 20260505014244 | 65 | 195 | 2.6 | 2.6 | 0.00 | 0.00 | 0.00 | 67 | 1005.5 |
| 20260505013740 | 65 | 184 | 0.9 | 0.9 | 0.00 | 0.00 | 0.00 | 67 | 1005.6 |
| 20260505013237 | 66 | 213 | 1.7 | 4.3 | 0.00 | 0.00 | 0.00 | 66 | 1005.5 |
| 20260505012735 | 66 | 188 | 0.9 | 1.7 | 0.00 | 0.00 | 0.00 | 66 | 1005.6 |
| 20260505012232 | 66 | 181 | 0.9 | 0.9 | 0.00 | 0.00 | 0.00 | 65 | 1005.3 |
| 20260505011728 | 66 | 210 | 0.9 | 1.7 | 0.00 | 0.00 | 0.00 | 65 | 1005.5 |
| 20260505011225 | 66 | 204 | 2.6 | 4.3 | 0.00 | 0.00 | 0.00 | 65 | 1005.5 |
| 20260505010721 | 66 | 218 | 0.0 | 0.0 | 0.00 | 0.00 | 0.00 | 65 | 1005.6 |
| 20260505010217 | 66 | 221 | 0.9 | 1.7 | 0.00 | 0.00 | 0.00 | 64 | 1005.5 |
| 20260505005714 | 66 | 219 | 0.0 | 0.9 | 0.00 | 0.00 | 0.00 | 65 | 1005.2 |
| 20260505005211 | 66 | 211 | 0.0 | 0.0 | 0.00 | 0.00 | 0.00 | 64 | 1005.3 |
| 20260505004708 | 66 | 181 | 1.7 | 1.7 | 0.00 | 0.00 | 0.00 | 63 | 1005.6 |
| 20260505004204 | 66 | 215 | 1.7 | 1.7 | 0.00 | 0.00 | 0.00 | 63 | 1005.2 |
| 20260505003702 | 66 | 219 | 0.0 | 0.0 | 0.00 | 0.00 | 0.00 | 63 | 1005.6 |
| 20260505003200 | 67 | 224 | 0.0 | 0.9 | 0.00 | 0.00 | 0.00 | 62 | 1005.1 |
| 20260505002655 | 67 | 223 | 0.0 | 1.7 | 0.00 | 0.00 | 0.00 | 61 | 1005.3 |
| 20260505002153 | 67 | 225 | 0.9 | 1.7 | 0.00 | 0.00 | 0.00 | 61 | 1005.1 |
| 20260505001650 | 67 | 214 | 0.9 | 1.7 | 0.00 | 0.00 | 0.00 | 61 | 1005.3 |
| 20260505001148 | 68 | 189 | 0.0 | 0.0 | 0.00 | 0.00 | 0.00 | 61 | 1005.2 |
| 20260505000645 | 68 | 213 | 2.6 | 4.3 | 0.00 | 0.00 | 0.00 | 59 | 1005.0 |
| 20260505000143 | 68 | 217 | 6.1 | 8.7 | 0.00 | 0.00 | 0.00 | 59 | 1005.0 |
| 20260504235638 | 68 | 223 | 0.0 | 0.0 | 0.00 | 0.00 | 0.00 | 59 | 1005.0 |
| 20260504235135 | 69 | 239 | 3.5 | 12.2 | 0.00 | 0.00 | 0.00 | 58 | 1004.8 |
| 20260504234633 | 69 | 227 | 5.2 | 7.0 | 0.00 | 0.00 | 0.00 | 57 | 1004.8 |
| 20260504234130 | 70 | 207 | 9.6 | 13.0 | 0.00 | 0.00 | 0.00 | 56 | 1004.8 |
| 20260504233625 | 70 | 175 | 0.0 | 0.0 | 0.00 | 0.00 | 0.00 | 55 | 1004.5 |
| 20260504233121 | 70 | 229 | 0.0 | 0.0 | 0.00 | 0.00 | 0.00 | 55 | 1004.6 |
| 20260504232620 | 70 | 229 | 0.0 | 0.0 | 0.00 | 0.00 | 0.00 | 54 | 1004.7 |
| 20260504232116 | 71 | 217 | 1.7 | 2.6 | 0.00 | 0.00 | 0.00 | 53 | 1004.5 |
| 20260504231613 | 71 | 212 | 1.7 | 2.6 | 0.00 | 0.00 | 0.00 | 52 | 1004.4 |
| 20260504231109 | 71 | 179 | 2.6 | 5.2 | 0.00 | 0.00 | 0.00 | 53 | 1004.4 |
| 20260504230605 | 71 | 268 | 0.0 | 0.0 | 0.00 | 0.00 | 0.00 | 53 | 1004.6 |
| 20260504230104 | 71 | 211 | 1.7 | 6.1 | 0.00 | 0.00 | 0.00 | 53 | 1004.7 |
| 20260504225601 | 72 | 215 | 0.9 | 1.7 | 0.00 | 0.00 | 0.00 | 52 | 1004.8 |
| 20260504225058 | 71 | 217 | 2.6 | 4.3 | 0.00 | 0.00 | 0.00 | 54 | 1004.8 |
| 20260504224555 | 71 | 227 | 3.5 | 6.1 | 0.00 | 0.00 | 0.00 | 53 | 1005.0 |
| 20260504224052 | 71 | 219 | 0.0 | 0.9 | 0.00 | 0.00 | 0.00 | 53 | 1004.7 |
| 20260504223549 | 71 | 218 | 4.3 | 6.1 | 0.00 | 0.00 | 0.00 | 54 | 1005.0 |
| 20260504223044 | 71 | 234 | 0.0 | 0.0 | 0.00 | 0.00 | 0.00 | 55 | 1005.1 |
| 20260504222542 | 71 | 209 | 0.0 | 1.7 | 0.00 | 0.00 | 0.00 | 55 | 1005.0 |
| 20260504222039 | 72 | 213 | 3.5 | 6.1 | 0.00 | 0.00 | 0.00 | 54 | 1005.0 |
| 20260504221536 | 72 | 238 | 2.6 | 4.3 | 0.00 | 0.00 | 0.00 | 56 | 1004.9 |
| 20260504221033 | 71 | 215 | 4.3 | 5.2 | 0.00 | 0.00 | 0.00 | 56 | 1004.9 |
| 20260504220529 | 71 | 218 | 4.3 | 7.8 | 0.00 | 0.00 | 0.00 | 56 | 1005.2 |
| 20260504220026 | 71 | 206 | 7.0 | 8.7 | 0.00 | 0.00 | 0.00 | 57 | 1004.9 |
| 20260504215523 | 72 | 227 | 3.5 | 6.1 | 0.00 | 0.00 | 0.00 | 56 | 1004.9 |
| 20260504215020 | 71 | 173 | 2.6 | 2.6 | 0.00 | 0.00 | 0.00 | 56 | 1005.0 |
| 20260504214516 | 71 | 208 | 7.0 | 9.6 | 0.00 | 0.00 | 0.00 | 56 | 1005.0 |
| 20260504214012 | 71 | 231 | 5.2 | 7.0 | 0.00 | 0.00 | 0.00 | 56 | 1005.3 |
| 20260504213509 | 71 | 214 | 5.2 | 6.1 | 0.00 | 0.00 | 0.00 | 56 | 1005.2 |
| 20260504213007 | 71 | 232 | 3.5 | 5.2 | 0.00 | 0.00 | 0.00 | 56 | 1005.1 |
| 20260504212502 | 71 | 228 | 4.3 | 6.1 | 0.00 | 0.00 | 0.00 | 56 | 1005.2 |
| 20260504212000 | 71 | 192 | 5.2 | 8.7 | 0.00 | 0.00 | 0.00 | 56 | 1005.0 |
| 20260504211456 | 72 | 108 | 7.0 | 9.6 | 0.00 | 0.00 | 0.00 | 55 | 1005.0 |
| 20260504210954 | 73 | 245 | 8.7 | 12.2 | 0.00 | 0.00 | 0.00 | 53 | 1005.2 |
| 20260504210450 | 73 | 271 | 3.5 | 4.3 | 0.00 | 0.00 | 0.00 | 53 | 1005.0 |
| 20260504205947 | 73 | 219 | 0.9 | 5.2 | 0.00 | 0.00 | 0.00 | 52 | 1004.9 |
| 20260504205445 | 74 | 247 | 6.1 | 7.0 | 0.00 | 0.00 | 0.00 | 52 | 1004.8 |
| 20260504204943 | 73 | 211 | 3.5 | 7.0 | 0.00 | 0.00 | 0.00 | 53 | 1005.0 |
| 20260504204441 | 73 | 234 | 2.6 | 2.6 | 0.00 | 0.00 | 0.00 | 55 | 1005.1 |
| 20260504203940 | 73 | 202 | 3.5 | 7.8 | 0.00 | 0.00 | 0.00 | 55 | 1004.9 |
| 20260504203437 | 72 | 240 | 5.2 | 8.7 | 0.00 | 0.00 | 0.00 | 55 | 1005.5 |
| 20260504202933 | 72 | 166 | 1.7 | 5.2 | 0.00 | 0.00 | 0.00 | 55 | 1005.5 |
| 20260504202430 | 73 | 215 | 6.1 | 8.7 | 0.00 | 0.00 | 0.00 | 54 | 1005.5 |
| 20260504201926 | 72 | 226 | 6.1 | 11.3 | 0.00 | 0.00 | 0.00 | 56 | 1005.6 |
| 20260504201424 | 72 | 214 | 0.0 | 0.9 | 0.00 | 0.00 | 0.00 | 56 | 1005.3 |
| 20260504200921 | 71 | 205 | 7.8 | 11.3 | 0.00 | 0.00 | 0.00 | 55 | 1005.6 |
| 20260504200418 | 71 | 226 | 0.9 | 4.3 | 0.00 | 0.00 | 0.00 | 57 | 1005.6 |
| 20260504195915 | 71 | 215 | 4.3 | 6.1 | 0.00 | 0.00 | 0.00 | 56 | 1005.7 |
| 20260504195410 | 72 | 191 | 3.5 | 5.2 | 0.00 | 0.00 | 0.00 | 55 | 1005.8 |
| 20260504194907 | 72 | 230 | 0.9 | 0.9 | 0.00 | 0.00 | 0.00 | 56 | 1005.8 |
| 20260504194403 | 73 | 215 | 6.1 | 7.8 | 0.00 | 0.00 | 0.00 | 55 | 1005.7 |
| 20260504193859 | 72 | 185 | 5.2 | 8.7 | 0.00 | 0.00 | 0.00 | 56 | 1005.7 |
| 20260504193356 | 72 | 216 | 6.1 | 8.7 | 0.00 | 0.00 | 0.00 | 56 | 1005.8 |
| 20260504192855 | 73 | 251 | 3.5 | 6.1 | 0.00 | 0.00 | 0.00 | 54 | 1006.1 |
| 20260504192352 | 73 | 223 | 4.3 | 5.2 | 0.00 | 0.00 | 0.00 | 53 | 1006.2 |
| 20260504191850 | 72 | 261 | 4.3 | 7.0 | 0.00 | 0.00 | 0.00 | 54 | 1006.2 |
| 20260504191348 | 72 | 189 | 3.5 | 6.1 | 0.00 | 0.00 | 0.00 | 56 | 1006.2 |
| 20260504190843 | 72 | 274 | 2.6 | 6.1 | 0.00 | 0.00 | 0.00 | 55 | 1006.3 |
| 20260504190339 | 72 | 215 | 7.0 | 8.7 | 0.00 | 0.00 | 0.00 | 54 | 1006.4 |
| 20260504185836 | 72 | 210 | 7.0 | 12.2 | 0.00 | 0.00 | 0.00 | 54 | 1006.4 |
| 20260504185334 | 71 | 205 | 5.2 | 8.7 | 0.00 | 0.00 | 0.00 | 55 | 1006.3 |
| 20260504184829 | 72 | 181 | 5.2 | 7.8 | 0.00 | 0.00 | 0.00 | 54 | 1006.4 |
| 20260504184326 | 71 | 209 | 0.0 | 0.0 | 0.00 | 0.00 | 0.00 | 57 | 1006.6 |
| 20260504183821 | 71 | 174 | 2.6 | 7.0 | 0.00 | 0.00 | 0.00 | 56 | 1006.6 |
| 20260504183319 | 70 | 215 | 5.2 | 7.0 | 0.00 | 0.00 | 0.00 | 55 | 1006.5 |
| 20260504182817 | 71 | 189 | 6.1 | 13.0 | 0.00 | 0.00 | 0.00 | 55 | 1006.9 |
| 20260504182314 | 70 | 201 | 1.7 | 2.6 | 0.00 | 0.00 | 0.00 | 57 | 1007.0 |
| 20260504181811 | 70 | 186 | 1.7 | 2.6 | 0.00 | 0.00 | 0.00 | 57 | 1006.8 |
| 20260504181308 | 70 | 242 | 6.1 | 7.8 | 0.00 | 0.00 | 0.00 | 57 | 1006.9 |
| 20260504180807 | 70 | 231 | 4.3 | 5.2 | 0.00 | 0.00 | 0.00 | 57 | 1006.9 |
| 20260504180305 | 69 | 222 | 3.5 | 4.3 | 0.00 | 0.00 | 0.00 | 58 | 1006.8 |
| 20260504175803 | 69 | 212 | 2.6 | 5.2 | 0.00 | 0.00 | 0.00 | 59 | 1006.7 |
| 20260504175259 | 69 | 215 | 2.6 | 4.3 | 0.00 | 0.00 | 0.00 | 58 | 1006.7 |
| 20260504174757 | 69 | 170 | 0.9 | 5.2 | 0.00 | 0.00 | 0.00 | 59 | 1006.8 |
| 20260504174255 | 69 | 198 | 3.5 | 5.2 | 0.00 | 0.00 | 0.00 | 59 | 1007.0 |
| 20260504173751 | 68 | 179 | 2.6 | 2.6 | 0.00 | 0.00 | 0.00 | 59 | 1007.0 |
| 20260504173248 | 67 | 200 | 2.6 | 5.2 | 0.00 | 0.00 | 0.00 | 59 | 1007.4 |
| 20260504172745 | 67 | 187 | 1.7 | 4.3 | 0.00 | 0.00 | 0.00 | 60 | 1007.5 |
| 20260504172242 | 68 | 191 | 4.3 | 6.1 | 0.00 | 0.00 | 0.00 | 58 | 1007.4 |
| 20260504171738 | 67 | 222 | 0.0 | 0.9 | 0.00 | 0.00 | 0.00 | 60 | 1007.2 |
| 20260504171235 | 67 | 235 | 1.7 | 4.3 | 0.00 | 0.00 | 0.00 | 59 | 1007.2 |
| 20260504170732 | 66 | 231 | 0.0 | 0.0 | 0.00 | 0.00 | 0.00 | 61 | 1007.2 |
| 20260504170229 | 67 | 200 | 1.7 | 5.2 | 0.00 | 0.00 | 0.00 | 59 | 1007.4 |
| 20260504160147 | 65 | 217 | 1.7 | 2.6 | 0.00 | 0.00 | 0.00 | 61 | 1008.4 |
| 20260504151115 | 63 | 195 | 0.0 | 0.9 | 0.00 | 0.00 | 0.00 | 59 | 1008.1 |
| 20260504150613 | 63 | 202 | 4.3 | 7.0 | 0.00 | 0.00 | 0.00 | 59 | 1008.1 |
| 20260504150109 | 63 | 225 | 0.0 | 0.0 | 0.00 | 0.00 | 0.00 | 59 | 1008.4 |
| 20260504141038 | 60 | 264 | 0.0 | 0.9 | 0.00 | 0.00 | 0.00 | 60 | 1008.6 |
| 20260504140535 | 61 | 225 | 0.0 | 0.0 | 0.00 | 0.00 | 0.00 | 60 | 1008.7 |
| 20260504130459 | 58 | 226 | 0.0 | 0.0 | 0.00 | 0.00 | 0.00 | 62 | 1009.0 |